Wind_Speed
20 22 23 24 25 25 24 27 28 31 30 26 34 29 23 19 14 14 16 16 19 21 21 22 25 28 31 33 30 31 31 28 21 20 24 24 22 22 19 21 20 25 31
20 21 22 24 26 24 26 29 31 31 31 35 23 21 20 16 11 10 11 14 17 21 23 23 27 28 30 31 32 32 32 29 27 22 20 25 24 20 20 20 19 22 33
21 22 22 24 26 27 27 27 29 32 34 28 21 23 21 16 10 9 8 11 16 19 23 26 28 29 32 32 34 34 34 32 28 26 20 22 27 21 23 18 16 21 39
21 21 24 25 26 27 28 29 29 32 35 28 23 24 23 20 12 7 5 8 13 17 20 26 29 32 32 32 35 34 36 35 30 26 22 22 28 25 23 22 20 28 38
22 23 25 26 27 28 29 30 32 31 29 27 29 27 29 25 11 4 1 5 10 15 20 25 29 32 30 31 36 35 37 37 32 29 25 26 29 29 27 25 24 44 30
22 26 28 28 28 28 29 31 33 29 29 31 31 30 36 28 13 5 6 8 9 11 15 20 30 32 32 32 33 33 36 39 35 33 28 32 27 30 27 25 37 39 32
25 28 32 33 30 30 29 34 35 31 33 36 35 32 40 27 19 13 14 13 16 19 21 26 32 33 34 34 31 32 31 33 33 33 33 29 29 29 27 29 39 33 40
27 28 31 35 35 32 30 33 36 36 36 39 35 35 38 31 24 25 21 18 20 22 23 29 35 37 35 36 34 33 34 33 32 30 31 31 26 23 23 31 45 34 46
27 28 31 35 37 39 39 38 37 40 37 39 36 37 39 39 30 30 32 27 27 27 28 29 36 37 37 36 37 38 37 36 32 35 33 26 28 24 30 46 41 61 56
25 28 29 33 38 41 44 44 40 38 42 41 39 35 40 44 38 32 36 35 33 31 30 28 34 39 39 38 40 42 40 36 39 38 33 28 20 37 38 40 44 62 58
23 26 29 33 38 40 44 48 47 48 44 46 42 36 37 46 46 37 39 37 37 37 34 31 31 36 38 38 36 36 36 33 31 37 27 28 40 41 41 49 51 58 54
23 27 30 33 37 39 45 49 58 53 52 51 47 43 39 43 48 47 38 38 36 38 36 32 35 39 36 33 32 31 32 33 33 35 40 52 43 47 47 43 51 52 53
22 26 28 31 36 40 46 54 59 56 57 55 53 52 45 41 47 51 48 43 41 41 38 36 33 34 35 36 40 44 42 39 50 56 52 47 49 55 55 57 53 50 47
21 24 26 30 34 38 44 52 55 56 57 57 56 53 50 45 44 46 52 49 45 48 45 46 51 57 56 54 51 47 44 55 58 57 56 52 50 52 57 53 50 46 50
20 22 25 28 31 36 42 47 49 50 53 55 53 53 53 50 46 43 46 49 48 49 49 53 53 54 54 55 54 56 60 55 54 56 55 55 52 51 51 50 46 43 44
17 20 23 25 29 32 35 39 41 44 49 52 53 52 55 52 49 50 47 53 55 47 50 56 55 55 58 58 55 52 57 56 55 51 53 52 51 49 47 44 39 37 38
15 18 20 23 26 29 33 36 38 41 46 50 53 57 58 61 56 57 57 57 59 54 56 55 55 57 61 63 63 61 59 56 53 50 51 53 54 50 46 45 43 37 37
14 16 18 21 24 27 30 32 35 40 44 47 50 52 59 62 61 63 65 62 60 56 55 56 54 56 61 56 54 53 51 49 47 44 42 41 40 41 43 40 36 33 31
12 14 16 18 21 24 25 28 31 34 37 40 44 46 53 59 60 62 65 68 65 60 55 52 51 47 48 48 48 46 46 45 44 43 41 40 37 34 34 32 31 30 30
10 12 13 15 18 20 22 25 28 29 32 37 42 41 44 51 57 59 61 63 62 59 58 57 53 49 44 39 43 44 42 41 40 36 35 35 35 32 32 31 29 27 24
7 9 11 12 14 16 19 21 24 25 29 33 36 36 39 46 48 50 52 54 55 55 56 54 52 51 50 49 46 44 42 40 38 36 34 34 33 32 29 26 23 19 19
6 6 8 10 12 14 15 18 19 22 25 27 29 31 33 37 40 42 43 45 45 46 47 48 49 49 49 48 45 43 41 40 38 36 36 34 32 31 29 28 28 27 26
4 5 6 7 8 10 12 14 15 17 19 21 23 25 26 30 32 34 36 36 37 38 38 39 41 41 41 41 41 41 41 39 36 35 35 35 33 31 29 28 25 23 22
3 3 4 5 7 8 8 9 11 12 14 16 18 20 21 22 25 26 28 29 29 30 31 31 32 33 33 33 33 34 33 32 30 28 26 26 26 23 22 21 20 18 17
4 3 2 2 4 5 7 8 8 9 10 11 12 14 15 17 18 19 19 21 22 22 23 23 23 24 24 24 24 25 25 23 23 22 20 18 18 17 15 13 12 10 8
6 6 5 4 2 1 2 4 6 7 8 9 10 11 10 10 11 12 13 14 15 15 15 16 16 16 16 16 17 17 16 16 15 14 13 11 10 9 8 6 5 3 2
Wind_Direction
343 341 345 347 345 343 337 341 330 330 328 312 317 324 315 319 302 273 263 257 246 235 231 226 210 211 208 207 209 206 208 209 203 193 202 196 188 189 182 180 180 181 181
348 347 347 347 344 340 340 337 338 339 333 335 338 346 337 332 313 287 270 250 240 229 222 215 206 202 204 199 203 200 199 200 200 185 189 194 184 180 186 179 173 178 178
350 347 349 350 345 343 340 340 338 343 340 347 353 1 0 359 353 318 275 244 231 226 216 209 203 197 198 195 196 199 197 198 199 195 181 182 179 169 177 178 172 175 175
352 355 358 351 344 343 344 348 346 345 352 358 13 18 14 13 5 327 278 231 223 216 207 202 200 196 192 188 188 194 193 195 196 191 179 171 173 161 169 172 169 168 170
358 359 1 354 349 347 350 355 349 355 2 8 24 26 21 20 12 10 131 187 193 198 197 194 192 191 189 184 181 185 187 190 187 182 176 168 168 163 173 174 168 166 161
4 7 8 6 3 0 359 2 4 10 19 22 31 31 28 26 42 84 96 137 149 156 151 175 186 183 180 180 183 180 184 183 178 177 169 163 164 165 174 170 165 167 144
19 21 21 18 15 13 13 11 15 20 27 29 34 37 34 38 54 80 78 108 121 123 127 138 154 167 172 171 176 176 177 178 176 169 159 154 165 168 167 160 159 154 149
27 28 27 26 25 24 18 15 16 26 31 34 36 41 44 46 66 76 85 98 111 109 119 133 145 155 160 165 166 164 165 171 170 156 152 152 160 167 168 158 157 159 149
36 35 32 32 30 30 30 26 24 31 38 42 39 45 49 52 69 83 92 102 105 111 102 130 136 143 147 149 152 154 157 158 154 151 153 145 159 152 157 163 155 146 148
40 41 36 37 36 34 35 35 33 36 39 41 44 49 55 58 72 89 95 105 105 108 111 108 131 134 140 144 150 153 154 154 153 156 156 150 147 157 154 174 168 154 151
48 47 43 41 41 38 39 38 39 42 42 46 50 56 64 65 73 90 95 102 111 115 115 119 125 127 133 138 143 146 146 149 151 152 144 150 150 155 161 156 159 158 146
48 46 43 43 44 41 42 41 42 38 43 45 54 60 66 76 81 84 96 107 114 115 113 118 125 131 135 137 139 142 139 139 145 150 150 148 149 156 156 160 152 160 153
49 49 45 43 44 42 42 43 42 39 42 43 51 57 63 74 85 90 94 106 113 114 119 127 128 125 127 130 134 142 147 149 149 147 146 148 150 149 152 151 153 155 150
54 52 48 46 46 45 44 44 42 39 41 44 50 57 61 69 80 93 100 106 112 118 127 127 128 131 133 135 143 145 145 147 146 145 143 147 143 145 146 148 142 146 161
57 55 52 48 47 48 48 50 48 45 44 48 49 57 64 66 68 86 104 109 113 119 128 129 129 132 133 137 139 137 141 143 143 141 140 136 140 144 132 139 142 157 157
60 59 56 53 51 53 54 57 56 57 55 56 58 60 71 75 82 94 105 111 116 123 131 120 122 130 128 131 133 135 136 141 147 146 142 142 140 138 138 144 152 161 152
61 61 61 60 59 58 58 59 60 60 61 61 61 64 65 70 74 85 91 98 107 116 114 119 120 121 123 124 125 125 126 126 131 135 139 142 143 143 148 152 155 154 149
64 63 62 62 61 60 60 59 58 58 59 60 61 62 68 68 72 75 83 88 88 93 98 104 109 115 120 125 127 128 130 135 138 139 139 140 141 143 147 151 152 152 151
70 65 65 64 65 64 63 64 64 65 67 68 68 65 68 71 71 72 75 78 81 85 91 96 100 108 116 123 127 130 135 135 138 139 140 142 144 148 149 152 154 154 157
80 77 71 68 69 69 68 67 67 67 69 70 71 68 70 72 71 72 73 76 78 82 85 88 92 97 103 113 122 128 131 132 130 133 138 142 143 146 146 149 151 151 148
79 76 77 75 73 72 71 70 70 70 69 69 71 70 70 73 75 75 77 77 80 82 83 86 89 91 94 99 105 112 114 115 119 123 126 130 130 130 128 128 126 128 127
104 90 81 80 76 73 72 72 71 70 72 71 72 72 72 74 77 78 79 80 81 83 87 90 91 92 94 97 100 102 104 106 109 111 114 116 118 119 119 120 118 114 112
130 112 101 88 81 81 80 77 77 77 75 76 76 76 74 74 75 78 81 83 85 86 86 88 91 93 94 96 99 101 101 100 101 104 107 108 108 108 108 109 109 109 106
186 165 137 116 104 92 83 80 81 81 82 85 84 82 79 78 81 82 82 81 81 83 85 86 88 91 95 97 98 99 98 99 99 97 97 101 102 102 101 101 100 99 98
226 225 207 162 136 124 117 112 101 93 87 82 81 85 89 91 88 85 83 87 88 87 87 86 86 88 88 87 87 89 91 93 93 92 89 87 87 88 86 84 82 81 76
240 236 234 231 223 188 145 130 129 128 124 118 114 110 104 98 95 93 95 95 94 94 94 95 97 98 98 97 98 98 99 100 101 101 101 101 100 101 101 97 90 74 46
Height
1497 1492 1485 1478 1472 1465 1456 1451 1442 1435 1427 1418 1408 1398 1389 1385 1381 1379 1378 1378 1379 1380 1383 1386 1391 1397 1404 1412 1420 1427 1434 1441 1448 1453 1458 1463 1469 1473 1478 1484 1488 1494 1499
1497 1491 1484 1477 1468 1461 1454 1446 1438 1430 1421 1409 1401 1392 1385 1379 1376 1373 1370 1369 1370 1372 1375 1379 1384 1391 1398 1406 1414 1421 1429 1438 1444 1450 1455 1461 1468 1474 1479 1485 1488 1495 1502
1497 1490 1483 1475 1465 1458 1451 1443 1434 1425 1414 1404 1396 1386 1378 1372 1368 1365 1363 1361 1361 1363 1367 1371 1377 1384 1392 1400 1409 1417 1426 1435 1442 1449 1455 1460 1468 1474 1480 1485 1490 1497 1503
1496 1489 1483 1473 1464 1456 1449 1440 1430 1420 1410 1400 1392 1382 1371 1365 1363 1359 1356 1354 1354 1355 1359 1364 1371 1378 1387 1395 1405 1413 1423 1432 1440 1448 1454 1460 1467 1474 1481 1484 1490 1496 1502
1495 1489 1483 1473 1463 1456 1447 1438 1427 1417 1409 1399 1390 1378 1368 1363 1360 1355 1352 1349 1348 1349 1352 1358 1366 1375 1384 1393 1403 1411 1419 1429 1439 1447 1453 1459 1467 1474 1479 1485 1491 1497 1508
1496 1489 1482 1473 1463 1454 1446 1437 1426 1416 1407 1398 1389 1377 1368 1364 1358 1353 1348 1346 1345 1347 1349 1353 1362 1374 1384 1394 1404 1412 1420 1429 1438 1445 1453 1459 1468 1475 1481 1486 1490 1498 1507
1498 1491 1483 1474 1464 1455 1447 1437 1426 1416 1407 1398 1391 1378 1370 1364 1360 1354 1349 1346 1346 1349 1351 1354 1362 1374 1384 1395 1404 1414 1424 1434 1442 1448 1455 1464 1471 1478 1485 1489 1495 1502 1506
1502 1495 1487 1478 1468 1459 1450 1439 1429 1419 1409 1400 1393 1384 1374 1368 1364 1358 1352 1350 1351 1355 1357 1360 1366 1375 1386 1395 1405 1416 1427 1436 1444 1453 1463 1471 1478 1484 1490 1495 1498 1506 1515
1505 1499 1492 1483 1474 1463 1454 1443 1433 1423 1413 1405 1398 1390 1380 1374 1371 1363 1358 1357 1358 1362 1366 1369 1374 1382 1392 1401 1410 1420 1431 1440 1449 1459 1467 1472 1480 1485 1487 1492 1502 1504 1518
1510 1505 1498 1490 1480 1470 1461 1451 1441 1430 1419 1411 1404 1396 1389 1383 1378 1369 1367 1367 1367 1371 1376 1382 1386 1391 1400 1409 1418 1425 1433 1442 1451 1460 1468 1476 1485 1492 1500 1505 1508 1510 1519
1517 1511 1504 1496 1488 1479 1470 1459 1449 1437 1428 1417 1410 1403 1398 1390 1387 1380 1377 1375 1377 1380 1385 1391 1397 1404 1411 1419 1427 1434 1441 1448 1456 1466 1474 1479 1485 1494 1505 1508 1518 1524 1529
1522 1515 1509 1503 1496 1487 1478 1468 1453 1445 1434 1424 1417 1411 1407 1401 1394 1391 1387 1387 1390 1390 1395 1401 1407 1414 1421 1428 1435 1442 1448 1454 1461 1470 1475 1480 1487 1497 1507 1515 1522 1532 1541
1527 1521 1516 1510 1503 1494 1484 1472 1462 1456 1444 1434 1426 1420 1417 1413 1407 1402 1400 1399 1401 1402 1406 1411 1416 1423 1430 1436 1443 1447 1452 1457 1462 1471 1478 1487 1497 1506 1514 1521 1532 1543 1552
1532 1527 1522 1517 1510 1503 1493 1483 1475 1466 1457 1448 1438 1432 1427 1423 1419 1417 1412 1412 1413 1414 1418 1424 1429 1432 1435 1440 1447 1454 1460 1468 1472 1479 1488 1498 1505 1514 1521 1531 1539 1548 1555
1537 1533 1529 1524 1518 1511 1503 1496 1490 1484 1475 1465 1456 1447 1440 1435 1433 1431 1428 1425 1426 1428 1429 1433 1439 1444 1448 1454 1459 1464 1471 1478 1485 1493 1499 1504 1513 1522 1529 1539 1547 1553 1559
1543 1539 1536 1532 1527 1522 1516 1511 1507 1501 1494 1487 1478 1468 1459 1453 1449 1442 1439 1438 1439 1442 1441 1445 1451 1456 1458 1463 1468 1474 1481 1488 1495 1502 1508 1516 1523 1531 1538 1546 1552 1561 1566
1548 1545 1543 1540 1536 1531 1526 1522 1518 1514 1508 1501 1496 1488 1478 1469 1463 1456 1452 1450 1449 1450 1453 1458 1462 1465 1468 1473 1479 1486 1493 1500 1507 1513 1518 1524 1530 1538 1547 1555 1562 1567 1572
1553 1550 1548 1546 1543 1539 1535 1532 1528 1523 1518 1514 1510 1506 1497 1490 1484 1477 1468 1465 1462 1466 1469 1473 1477 1480 1485 1492 1497 1502 1507 1513 1520 1525 1531 1537 1543 1549 1556 1562 1567 1572 1577
1558 1556 1554 1552 1550 1547 1545 1542 1538 1535 1532 1529 1525 1523 1515 1508 1504 1499 1492 1485 1486 1486 1489 1490 1494 1498 1502 1505 1510 1515 1521 1525 1531 1536 1541 1546 1552 1558 1562 1567 1571 1575 1579
1562 1561 1560 1558 1556 1555 1552 1550 1547 1545 1543 1539 1536 1536 1533 1525 1518 1517 1514 1512 1510 1510 1511 1511 1512 1513 1516 1521 1524 1528 1533 1537 1542 1547 1551 1556 1560 1565 1568 1572 1577 1581 1584
1566 1565 1564 1564 1562 1561 1559 1557 1555 1554 1551 1548 1546 1547 1545 1539 1537 1536 1534 1533 1531 1531 1531 1531 1532 1532 1534 1536 1537 1542 1545 1548 1553 1557 1561 1565 1569 1571 1575 1579 1582 1585 1589
1569 1569 1568 1568 1567 1566 1565 1564 1563 1561 1559 1557 1556 1555 1555 1552 1551 1549 1549 1549 1549 1550 1550 1550 1549 1550 1552 1553 1555 1556 1558 1561 1565 1569 1571 1573 1576 1579 1583 1586 1589 1592 1593
1571 1572 1572 1571 1571 1571 1571 1570 1570 1569 1568 1566 1565 1564 1563 1562 1561 1561 1562 1562 1562 1563 1564 1564 1563 1563 1565 1567 1569 1570 1572 1575 1578 1580 1580 1582 1584 1587 1590 1592 1594 1596 1598
1572 1573 1574 1575 1575 1575 1574 1574 1574 1574 1574 1574 1573 1572 1571 1571 1571 1570 1570 1571 1572 1572 1573 1574 1574 1575 1576 1577 1578 1579 1581 1583 1585 1587 1589 1590 1591 1594 1595 1597 1599 1601 1603
1572 1573 1574 1575 1576 1577 1578 1579 1578 1578 1578 1578 1577 1578 1578 1578 1578 1578 1578 1579 1579 1580 1581 1582 1583 1583 1584 1585 1586 1587 1588 1590 1591 1592 1594 1595 1597 1598 1600 1602 1603 1604 1605
1572 1573 1574 1575 1576 1577 1578 1579 1580 1581 1582 1582 1582 1583 1583 1583 1583 1583 1584 1585 1586 1586 1587 1588 1589 1590 1591 1592 1593 1594 1595 1596 1597 1599 1600 1602 1603 1604 1605 1606 1607 1607 1608